Location: Sungai Liu
(2.3667°N, 113.8667°E)
Time: 12:57:05
(UTC+00:00)

CZ-4C R/B - Pass Details

Date: 20 May 2022
Orbit: 581 x 1420 km, 63.4° (Epoch: 04 July)

Event Time Altitude Azimuth Distance (km) Brightness Sun altitude
Rises 20:04:12 0° 329° (NNW) 4,361 5.8 -30.9°
Reaches altitude 10° 20:07:04 10° 326° (NW) 3,445 5.2 -30.3°
Maximum altitude 20:15:36 60° 248° (WSW) 1,588 3.2 -28.3°
Drops below altitude 10° 20:24:03 10° 170° (S) 3,414 5.2 -26.4°
Sets 20:26:54 0° 166° (SSE) 4,318 5.8 -25.7°
